RH
17 16 15 15 14 13 13 12 12 12 12 12 11 12 12 14 14 15 15 16 17 17 16 16 17 16 16 14 13 13 13 12 12 12 13 12 12 12 11 11 11 11 11 12 12 11 10 11 12 14 15 14 13 12 11 11 10 10 11 12 11 11 10 9 8 7 7 7 7 8 8 7 7 7 7 6 6 6 7 13 21 31 44 58 74 86 92 90
15 14 14 14 13 13 13 12 12 11 11 11 11 12 13 14 15 15 16 17 18 18 17 17 17 17 16 15 14 13 13 13 12 13 13 13 12 12 13 12 11 11 11 12 12 12 12 11 11 11 13 16 17 16 15 13 11 11 11 12 12 12 11 10 8 7 7 7 7 6 6 6 6 6 6 7 9 9 17 34 49 64 78 88 95 99 99 95
14 14 14 14 14 14 13 12 11 11 11 11 11 12 13 14 15 15 16 17 18 18 18 18 17 17 16 15 14 13 13 13 13 13 13 13 13 13 14 14 13 12 11 11 12 13 13 13 12 11 11 12 15 17 19 19 17 17 17 16 14 12 12 11 9 8 8 8 9 9 10 12 15 17 19 23 26 31 43 59 75 90 98 100 101 100 99 98
15 15 15 15 14 13 13 12 11 11 11 12 12 14 14 15 15 16 16 17 18 18 18 18 18 17 16 15 14 14 14 14 14 14 14 14 14 14 15 14 13 13 12 12 12 12 13 13 13 13 12 11 11 12 15 17 19 21 23 21 19 18 18 17 16 17 17 18 18 18 19 20 20 21 21 23 25 31 41 55 75 94 100 100 102 102 99 97
16 15 15 14 13 13 13 13 13 13 13 14 15 15 16 16 16 16 16 17 18 18 18 18 18 17 16 15 14 14 14 14 14 15 15 15 16 16 16 15 14 14 14 13 12 12 12 13 13 13 14 13 12 11 11 12 13 16 18 19 20 21 22 22 22 20 19 19 18 17 15 13 12 11 11 11 12 14 24 48 74 90 99 101 102 103 100 94
16 15 14 14 14 14 14 15 15 16 16 16 17 17 17 17 17 16 16 17 17 18 18 17 18 17 16 15 14 14 15 15 15 16 15 16 16 17 17 17 16 15 15 14 13 13 13 13 14 14 14 14 14 13 12 11 10 11 12 13 13 14 15 16 15 14 13 12 11 11 10 9 10 9 9 9 9 9 22 53 79 90 98 101 101 104 99 90
17 17 16 17 17 17 17 18 19 19 19 19 19 19 19 18 17 17 17 17 17 17 18 17 17 17 16 15 15 15 15 15 15 15 15 15 16 16 17 18 18 17 16 15 14 13 13 13 14 14 14 14 14 14 13 12 11 11 10 10 9 9 10 10 10 9 10 11 10 10 10 10 10 9 9 8 9 9 15 40 67 84 95 98 100 102 95 85
21 20 20 20 21 21 21 21 21 21 21 21 21 21 20 19 18 18 18 18 17 17 17 17 17 16 16 15 15 15 15 15 15 14 15 15 16 16 17 17 18 18 17 16 15 14 13 14 15 15 15 14 14 14 14 14 13 13 12 11 10 9 9 9 9 9 10 11 11 11 10 10 10 10 9 9 10 9 14 37 67 87 96 99 101 104 96 78
25 24 24 24 23 23 23 23 22 22 22 22 23 22 21 20 19 18 18 18 18 17 17 16 16 15 15 15 15 15 14 14 14 14 15 15 16 16 16 16 17 18 18 17 16 14 13 15 16 16 15 14 15 15 14 14 13 13 13 12 12 11 11 11 11 10 11 12 12 12 11 11 11 10 10 11 11 9 18 45 80 96 99 102 102 104 95 59
25 25 24 24 24 24 24 24 23 23 23 23 24 23 22 21 19 19 18 18 18 17 17 16 16 15 15 15 15 15 14 14 14 15 16 17 17 16 15 15 16 17 17 18 17 15 13 16 18 17 14 14 16 17 16 16 15 13 13 13 13 12 12 12 12 11 12 13 13 13 12 12 12 11 13 13 11 11 16 39 74 92 97 99 94 96 83 42
26 26 26 25 25 24 24 24 24 23 23 23 23 23 22 20 19 19 18 18 17 16 16 16 15 15 15 14 14 15 13 14 16 15 17 19 19 18 17 16 16 16 17 17 16 15 15 17 19 17 14 14 16 17 17 17 16 15 14 13 13 12 12 12 11 11 12 13 14 14 13 13 12 12 14 15 12 11 14 29 56 77 90 94 89 87 66 32
27 27 26 26 25 24 24 23 23 22 22 21 22 21 20 20 19 18 18 17 17 16 16 15 15 15 14 14 16 15 13 15 17 18 19 21 20 20 19 18 18 17 17 17 17 17 16 18 19 16 14 15 16 15 17 17 17 17 16 15 14 13 13 12 11 10 11 13 14 15 15 14 13 12 15 17 15 12 12 18 38 66 86 90 85 74 48 29
29 28 27 26 25 24 24 23 22 21 21 21 22 22 21 21 20 20 19 18 18 17 17 16 15 15 15 16 20 17 13 17 21 22 22 19 19 21 21 20 20 19 19 18 18 17 17 17 17 15 15 15 15 14 16 16 16 18 18 17 17 15 14 13 12 11 11 12 14 16 15 15 14 13 15 19 18 15 13 14 33 66 83 77 67 53 36 35
42 40 39 37 35 33 32 30 29 27 27 27 28 28 27 27 28 27 26 25 24 23 22 21 19 19 18 21 25 20 16 21 26 26 23 19 20 23 24 23 22 21 20 19 18 18 17 17 16 15 15 15 14 14 16 16 14 17 18 19 19 18 16 15 14 13 11 12 13 15 16 15 15 15 16 18 19 17 14 17 35 61 71 62 51 42 38 40
53 51 49 47 45 43 42 41 39 37 36 36 37 38 36 37 37 36 35 34 33 32 31 29 27 26 25 28 31 25 23 27 29 28 24 22 24 25 25 24 22 21 20 20 19 18 17 16 16 15 15 14 14 15 16 15 15 15 16 18 20 21 20 17 17 15 12 12 12 14 16 15 15 16 16 16 18 21 19 20 34 52 60 54 45 42 41 42
51 51 50 49 48 47 47 47 45 43 42 42 43 43 42 42 42 41 40 39 38 37 36 35 33 33 32 33 34 30 29 31 30 29 27 27 27 25 24 24 23 22 21 20 19 18 17 16 15 15 14 14 14 15 15 16 16 14 14 17 21 24 24 20 20 19 15 13 12 15 16 16 15 15 18 18 16 23 27 25 34 46 52 52 47 43 41 41
47 47 47 47 46 46 47 47 46 44 43 43 44 44 43 44 43 43 41 40 40 38 37 37 36 36 35 35 36 33 32 32 31 30 29 28 27 25 25 24 23 22 21 20 19 18 16 15 15 14 14 13 14 15 16 17 15 12 14 18 21 26 28 24 23 23 19 15 13 15 17 16 16 15 18 21 16 19 30 32 35 44 49 51 50 46 43 41
42 42 43 43 42 42 43 44 44 43 41 41 42 43 43 44 44 43 42 41 40 39 38 38 37 37 36 36 36 34 33 33 32 30 29 28 27 26 25 24 22 21 20 19 18 16 15 14 13 13 13 12 13 16 17 15 12 13 15 19 24 29 31 26 26 28 24 19 15 15 17 17 17 16 17 22 17 12 24 33 35 41 50 53 53 49 45 42
42 42 42 42 42 41 42 43 44 43 41 40 41 42 42 42 42 42 41 40 39 38 37 37 36 36 35 35 35 34 33 32 31 30 29 27 26 25 23 22 21 20 19 17 16 15 14 13 12 12 12 12 12 13 14 12 12 14 14 19 26 32 34 29 27 31 30 24 19 16 17 17 17 18 17 20 20 10 14 29 35 36 43 52 56 54 50 47
45 45 45 44 44 44 44 44 44 43 41 39 39 39 38 38 38 38 37 37 36 36 35 34 34 33 32 32 32 31 31 30 29 28 27 26 25 23 22 21 19 18 17 15 15 14 13 12 12 11 11 11 11 11 12 11 13 16 19 25 31 35 38 34 29 32 33 29 24 19 17 18 17 19 18 18 21 15 8 19 33 36 37 46 55 58 57 53
43 43 43 42 42 41 41 41 40 39 38 36 35 34 34 33 33 32 32 32 32 31 31 31 30 30 30 29 29 28 27 27 26 25 24 23 22 21 20 19 17 16 15 14 13 13 12 12 11 11 11 10 11 11 11 11 12 17 26 32 38 41 39 37 33 31 32 31 29 24 18 18 17 19 20 18 19 19 11 10 23 33 34 38 47 56 58 54
39 38 39 38 38 37 36 35 35 34 34 33 31 30 29 29 28 28 28 28 28 28 28 27 27 27 26 26 26 25 24 24 23 22 22 21 20 19 18 17 16 15 14 14 13 13 12 11 11 11 11 10 11 11 11 11 11 14 22 30 41 42 34 35 35 29 29 31 32 30 22 19 18 19 21 18 17 20 16 8 13 26 30 30 37 46 50 48
34 33 33 33 33 32 31 31 30 30 30 29 28 26 25 25 25 25 25 26 26 26 26 25 25 25 24 23 22 22 22 22 21 20 20 19 19 18 17 17 15 15 15 14 13 12 12 12 12 11 11 11 11 10 10 10 10 12 16 24 34 34 28 31 32 27 28 31 34 34 29 22 18 19 20 18 17 20 19 11 7 18 28 29 32 37 40 41
32 33 33 33 33 31 30 28 27 28 28 28 27 26 25 24 24 24 24 25 26 25 25 25 24 24 23 21 20 21 22 21 20 20 19 19 18 18 18 16 15 15 17 16 14 14 13 12 12 12 11 11 10 11 11 10 10 10 12 17 23 22 22 27 29 29 31 33 36 37 34 29 22 20 20 18 17 19 21 15 5 10 22 29 32 34 37 39
33 34 34 35 35 34 32 30 28 28 29 28 27 26 26 24 24 24 23 24 24 24 23 24 23 23 22 21 21 21 20 20 21 20 19 18 18 18 17 16 17 19 19 17 16 16 14 14 14 13 12 12 11 11 11 11 10 10 11 13 14 14 16 21 27 34 38 38 38 38 37 34 29 23 20 19 18 18 21 17 7 5 14 24 30 32 35 38
29 30 31 31 32 31 31 29 28 28 27 27 26 25 24 23 22 21 21 20 20 20 20 21 21 21 21 21 21 20 20 21 21 20 18 19 18 18 19 20 21 22 21 19 20 20 18 17 16 14 14 13 13 13 11 11 10 10 11 10 10 10 11 17 24 34 45 44 40 42 42 38 35 31 24 20 18 17 20 18 9 4 8 17 23 27 29 30
22 23 24 25 26 26 27 27 26 25 25 24 24 23 21 21 20 19 19 18 17 18 18 18 18 18 19 19 19 19 19 21 21 19 19 19 19 18 19 22 25 26 24 21 24 24 18 17 19 17 17 17 16 14 12 12 12 11 11 10 10 10 10 15 20 33 49 48 42 48 49 43 39 36 31 24 19 17 20 19 12 5 6 10 14 16 16 17
18 18 20 21 22 23 24 25 24 23 22 22 22 22 22 20 20 19 18 17 17 17 17 17 16 16 17 18 18 18 18 20 20 20 20 19 18 18 20 24 29 30 25 24 28 26 19 21 24 22 21 21 18 15 14 14 13 12 11 11 11 9 10 12 14 27 43 48 50 54 54 49 41 37 36 30 20 17 19 21 16 7 6 7 8 9 9 10
17 17 18 20 21 22 23 24 25 23 21 21 21 22 22 22 21 20 19 18 18 18 17 18 17 15 15 17 19 18 17 19 20 21 21 20 19 19 21 24 28 29 26 27 32 29 24 27 28 26 27 24 18 16 17 16 13 13 13 12 11 10 10 10 11 17 28 42 56 56 55 54 42 36 42 35 23 19 20 21 17 9 7 8 8 8 7 9
17 17 17 18 19 20 21 22 23 24 22 21 21 21 22 23 22 21 20 19 19 19 18 18 18 16 15 15 19 21 19 19 20 21 23 23 20 20 21 22 23 26 26 28 33 31 29 31 30 30 31 25 18 18 21 19 15 15 15 13 12 11 10 10 10 11 16 34 47 44 52 58 44 39 44 36 25 22 21 21 17 11 10 10 9 8 8 9
17 17 17 17 18 18 18 18 19 20 21 20 20 20 21 22 22 22 21 20 20 19 18 18 18 18 17 15 16 21 24 23 20 20 23 26 22 19 22 23 21 25 27 28 33 35 33 32 34 36 32 24 20 21 24 21 17 18 17 13 12 12 12 12 11 10 12 23 27 27 47 60 49 44 41 32 30 28 22 20 19 14 11 10 9 9 8 9
16 16 17 17 17 17 18 18 17 17 18 18 18 18 18 19 19 20 21 22 22 19 18 19 18 19 20 18 16 18 24 28 26 22 21 27 27 23 23 25 23 25 27 30 34 36 33 30 33 35 29 23 21 22 24 22 19 19 17 14 13 13 14 14 13 12 11 14 15 19 40 55 53 48 38 30 36 35 23 19 21 17 12 11 10 9 9 10
16 16 16 16 16 16 17 17 17 17 17 17 17 17 17 16 17 18 20 23 22 19 18 20 20 20 21 21 19 17 19 26 31 29 24 24 28 28 26 24 24 23 25 28 29 29 28 25 27 31 29 25 24 23 25 23 19 18 17 16 16 17 19 17 14 13 11 11 11 14 29 45 52 53 42 33 40 40 27 21 22 21 15 12 11 10 10 11
17 16 16 16 15 15 16 16 16 16 16 16 16 16 16 16 17 18 19 21 20 20 21 21 21 21 21 23 23 20 18 20 26 31 30 26 26 30 31 27 25 24 26 28 27 27 27 24 26 33 36 30 26 24 23 21 18 18 18 18 21 24 21 16 13 14 13 12 11 11 19 31 43 51 44 34 39 43 35 27 22 23 21 16 13 13 11 11
17 17 17 17 16 16 16 16 15 15 15 15 15 15 15 16 17 18 18 19 20 22 23 23 23 22 21 22 25 25 23 20 21 27 32 32 29 30 32 32 28 25 27 28 29 29 29 28 29 34 37 33 29 25 22 20 19 18 18 20 25 24 18 15 15 16 16 16 15 13 15 20 29 41 42 35 38 43 41 36 27 23 25 22 17 14 13 12
17 16 16 17 17 16 16 16 16 16 15 15 15 14 15 15 16 17 18 18 19 21 25 27 26 24 23 21 23 26 27 24 22 22 28 34 35 31 30 31 30 26 26 27 30 31 29 31 31 30 33 36 34 27 21 20 20 17 17 22 25 19 15 20 21 19 20 20 18 16 15 15 17 28 38 39 42 44 45 44 35 26 25 27 23 17 15 14
17 15 14 15 16 16 16 16 16 16 16 16 15 15 15 15 15 16 17 18 19 19 23 29 29 26 24 22 22 25 29 30 27 23 23 29 35 36 32 30 31 30 29 27 29 32 31 33 33 28 30 34 31 24 18 18 18 16 19 23 22 16 20 28 28 27 27 21 18 18 16 14 12 17 28 37 42 46 47 47 42 32 26 28 28 23 19 16
14 13 13 13 14 15 15 15 15 16 16 16 16 16 16 16 16 16 16 17 19 19 20 25 29 29 26 24 23 25 29 34 33 28 25 25 30 36 36 32 31 31 33 32 30 31 32 36 35 31 32 34 29 24 21 20 20 21 22 23 21 20 27 34 34 32 27 20 20 21 19 17 13 12 18 26 35 41 43 45 45 40 32 28 29 28 25 21
11 11 11 10 11 11 12 13 13 14 14 15 16 16 17 17 17 17 17 17 18 19 19 21 24 29 29 26 24 25 29 34 35 33 29 26 26 32 37 36 33 32 35 36 34 31 33 35 35 34 36 34 29 26 24 24 26 26 24 24 24 26 32 36 34 31 27 23 24 25 22 19 16 13 13 17 25 33 38 41 42 42 39 32 28 27 29 29
11 11 11 11 10 10 11 11 11 12 12 12 12 14 16 17 18 17 17 18 18 18 20 19 20 25 29 29 26 24 27 32 36 36 33 30 27 28 34 36 34 34 36 38 37 35 35 35 35 35 36 33 29 27 27 28 29 28 26 26 27 29 33 33 30 30 31 29 27 25 23 20 17 16 14 13 17 25 35 41 42 43 43 40 32 26 26 30
10 11 11 11 12 12 11 12 12 11 11 11 10 10 12 14 16 17 17 17 18 19 19 20 20 21 25 29 29 25 25 28 34 37 35 33 30 28 30 33 34 35 36 38 38 37 37 37 36 35 34 32 30 29 29 29 29 29 27 26 27 29 29 28 26 28 32 32 27 21 20 22 21 19 17 15 14 16 26 36 42 45 46 46 42 33 28 27
7 7 8 9 10 10 11 12 13 13 13 13 12 10 10 10 12 15 16 17 18 18 19 20 20 20 21 26 29 28 25 25 30 36 36 35 33 30 30 31 33 34 35 38 38 36 37 38 38 36 33 32 31 29 28 27 27 28 26 24 25 25 24 25 29 32 32 32 27 21 21 26 27 24 22 21 17 14 17 24 35 42 44 47 47 42 36 31
4 4 4 5 6 6 8 9 11 13 13 14 14 14 12 10 9 11 13 15 17 18 18 19 19 19 19 22 26 29 28 24 25 30 36 37 35 32 32 32 32 32 34 37 38 37 36 37 40 39 34 32 31 30 28 27 27 26 26 25 22 21 22 24 30 34 31 31 32 31 31 32 33 33 28 25 23 19 16 17 23 33 39 44 46 46 43 38
2 2 3 3 3 4 4 6 7 9 11 12 14 15 15 13 11 10 10 11 13 16 17 18 19 19 19 20 23 27 29 27 24 25 31 38 38 34 33 34 34 32 33 35 38 38 36 35 38 39 36 31 29 29 27 26 26 23 25 25 20 20 20 21 25 27 27 32 35 41 45 38 34 36 32 28 27 23 19 16 16 22 31 39 43 45 46 44
2 2 2 2 3 3 3 4 4 5 7 9 11 13 15 16 14 13 12 10 10 13 15 17 18 18 19 19 20 24 27 28 26 23 25 33 38 37 33 34 35 34 32 33 37 39 38 36 36 37 37 32 28 28 27 27 27 25 26 26 22 21 19 19 21 20 26 35 36 50 61 43 31 36 36 32 31 26 24 20 16 16 21 29 37 42 45 46
2 2 2 2 2 2 2 3 3 3 4 5 7 10 12 15 15 15 14 13 11 10 12 15 17 18 18 18 19 21 24 26 26 24 23 26 34 39 36 33 34 36 34 31 34 39 39 37 36 36 37 34 29 28 28 29 29 29 30 28 25 24 20 20 20 16 25 31 34 59 71 43 25 32 33 31 31 28 27 24 19 17 16 19 27 34 40 44
2 2 2 2 2 2 2 2 2 3 3 3 5 7 9 11 14 15 15 15 14 12 10 11 15 17 18 18 19 20 21 24 25 25 24 22 26 34 37 34 32 34 36 33 32 36 39 38 36 36 37 34 31 29 27 27 27 28 31 30 27 25 22 21 19 17 22 22 30 65 75 42 22 24 24 27 29 27 28 26 22 21 18 16 18 22 30 37
1 2 2 1 2 2 2 2 2 2 3 3 3 4 6 8 10 12 14 15 16 16 13 11 11 14 17 17 18 19 20 22 24 24 24 23 22 27 33 35 32 30 34 35 33 33 37 38 37 36 36 35 32 30 27 26 25 26 29 30 29 26 23 22 20 20 22 18 28 58 61 36 22 19 17 21 25 26 28 26 25 25 23 21 19 17 20 24
2 1 1 2 2 2 2 2 2 2 3 3 3 3 4 6 8 9 11 13 15 17 16 14 11 11 15 17 17 18 19 21 22 23 23 23 22 22 27 32 32 30 30 33 34 33 33 36 37 37 36 35 33 31 28 25 24 24 26 28 28 27 24 22 20 22 23 21 27 39 37 29 28 24 17 18 19 21 24 24 26 27 25 25 25 22 20 19
2 1 2 2 1 2 2 2 2 2 2 2 3 3 3 4 5 7 8 10 13 15 18 17 14 11 11 14 16 17 18 19 21 22 22 22 22 21 22 26 29 30 29 29 32 33 31 32 34 36 36 35 33 32 30 27 24 23 24 25 27 27 26 24 21 22 25 24 28 31 27 27 32 30 25 20 16 17 19 22 24 22 21 24 25 25 24 20
2 1 2 1 2 2 1 1 2 2 2 2 2 3 3 3 4 5 7 8 9 12 16 18 18 14 11 11 14 16 17 18 19 21 21 22 22 22 21 22 25 29 30 27 27 30 31 29 30 33 35 35 34 32 30 28 24 22 22 24 25 27 27 26 23 24 25 26 29 31 27 27 31 32 29 22 16 15 16 18 20 17 16 19 22 24 25 23
2 2 2 1 2 2 1 2 2 1 2 2 2 2 3 3 3 4 5 6 8 9 12 16 19 17 13 11 12 14 16 17 18 19 20 21 22 22 21 20 21 25 28 27 25 26 29 30 28 29 31 33 34 32 31 29 26 23 22 22 24 26 27 27 25 25 25 26 29 31 30 30 31 30 27 21 17 15 15 15 16 15 14 15 17 19 20 21
Wind_Speed
33 32 32 31 30 29 28 28 27 26 25 24 23 22 21 20 19 17 17 16 16 15 14 13 13 13 14 13 12 11 10 8 6 5 5 5 5 4 5 6 7 8 8 7 6 5 5 4 4 4 3 5 7 9 11 13 14 15 16 18 19 21 23 26 27 28 28 28 29 29 30 30 30 30 30 30 30 29 28 27 26 26 25 24 23 21 21 20
34 34 33 33 32 31 30 29 28 27 26 25 24 23 23 22 21 19 18 18 18 18 17 16 16 15 15 15 15 14 13 12 10 8 7 7 6 6 5 5 6 6 8 8 8 7 5 4 4 4 3 3 4 6 7 9 10 11 12 14 15 17 19 22 24 25 25 26 27 27 28 28 28 28 29 29 29 28 27 27 26 25 24 22 21 20 19 19
36 35 35 34 33 32 31 30 29 28 27 26 25 24 24 23 23 21 20 19 20 20 20 19 19 18 17 17 17 16 16 15 13 12 11 10 9 8 7 7 7 6 7 8 9 8 7 6 5 4 4 4 4 4 5 6 7 8 9 11 13 14 16 18 20 21 22 23 24 24 24 25 25 26 27 28 28 29 28 28 27 24 22 21 20 19 19 18
37 36 35 35 34 32 31 30 30 29 28 27 26 25 25 25 24 23 22 21 21 22 22 21 21 21 20 19 18 18 18 18 17 16 15 13 12 10 10 10 10 8 7 7 8 9 9 9 8 7 6 6 5 5 5 5 5 7 8 9 11 11 13 14 15 16 17 19 20 20 20 21 21 23 24 26 28 29 28 27 25 21 20 19 19 19 18 17
38 37 36 35 33 32 31 31 30 29 28 27 27 26 26 26 26 25 24 23 23 24 24 23 23 24 23 21 20 20 20 20 19 19 18 16 15 14 13 14 13 12 10 9 9 9 11 11 10 9 9 8 8 8 7 7 6 6 7 8 9 9 10 11 11 11 12 14 16 16 16 17 18 19 22 24 26 27 26 24 21 19 18 18 18 18 17 16
37 36 35 35 34 33 32 31 31 30 29 28 28 28 28 28 28 27 26 25 25 26 27 25 25 25 25 24 23 22 22 22 21 21 21 20 19 18 17 16 16 15 14 12 11 10 11 12 12 12 11 11 11 11 10 10 9 9 9 9 9 9 9 10 10 9 9 11 13 14 14 15 16 17 19 22 23 25 23 21 20 19 19 19 18 18 17 16
37 37 36 35 34 34 33 32 32 31 30 30 30 31 31 31 30 29 28 28 28 28 29 28 27 27 27 26 25 25 25 24 24 24 24 23 22 21 20 19 19 18 17 16 14 12 12 13 14 14 14 13 12 13 13 12 12 12 11 12 12 11 10 10 10 9 9 10 12 13 14 15 16 17 18 19 21 22 21 20 20 19 19 18 18 18 17 16
38 37 37 36 36 35 35 34 34 33 33 33 33 34 35 34 32 31 31 31 31 30 30 30 29 29 28 28 28 28 28 27 26 26 26 26 25 25 23 22 21 21 20 19 18 15 13 14 15 16 16 16 14 14 14 14 14 14 14 14 15 14 13 12 11 10 9 10 11 12 13 14 15 16 17 18 18 18 18 18 16 15 15 14 14 14 13 14
40 40 39 39 38 38 37 37 37 36 36 36 37 38 38 37 35 34 34 34 34 33 33 33 32 31 30 30 30 31 30 29 29 28 28 28 28 27 26 25 24 23 22 22 21 18 14 14 17 18 19 18 16 16 16 16 16 16 16 16 16 16 15 14 13 11 10 10 11 12 13 14 15 16 17 17 16 15 15 15 14 14 13 12 12 11 12 12
43 43 42 42 41 41 41 41 40 40 39 39 41 42 42 40 39 38 37 37 37 36 36 35 35 33 33 32 32 34 33 31 31 31 30 30 29 29 29 27 25 24 23 23 24 22 16 15 19 21 21 19 18 18 18 18 18 18 17 17 17 17 16 16 14 13 11 10 11 12 12 14 15 16 16 17 15 13 12 14 16 15 14 12 11 11 12 10
46 46 46 45 45 44 44 44 44 43 43 43 44 45 45 43 42 42 41 40 40 40 39 38 37 36 35 34 35 37 35 32 33 33 31 31 30 30 30 29 27 26 25 24 25 24 19 18 22 24 22 20 21 21 21 21 20 20 19 19 18 18 18 17 16 15 13 10 9 11 12 13 14 15 16 16 14 12 10 12 15 15 12 10 10 12 11 10
49 49 49 48 48 48 47 47 47 46 45 46 46 47 47 45 45 44 43 43 43 42 41 41 40 39 37 37 38 40 37 34 35 34 33 32 31 31 31 30 29 28 27 26 26 25 23 22 25 26 24 22 23 24 24 24 23 22 21 20 19 19 19 18 17 16 14 11 8 9 11 12 13 14 15 14 13 11 8 8 12 12 9 7 9 10 10 11
51 51 51 51 50 50 50 49 49 48 48 48 49 49 48 47 47 47 46 45 45 45 44 43 42 41 39 38 40 41 38 35 35 36 36 34 32 31 31 31 31 30 29 28 28 27 27 27 28 28 26 26 26 26 26 27 25 24 23 22 20 20 20 20 18 18 16 12 9 9 10 11 11 13 14 13 11 9 6 4 9 11 7 5 8 10 11 12
53 53 53 53 52 52 52 51 51 50 50 50 50 51 50 49 49 49 48 47 47 47 46 45 44 43 41 40 42 42 38 36 37 38 39 36 33 31 32 33 32 32 32 31 31 31 31 31 31 30 30 30 29 28 28 29 27 26 26 24 22 21 22 21 19 19 17 14 11 10 10 10 10 11 12 11 10 8 4 3 9 10 7 7 9 11 12 13
56 56 55 55 54 53 53 53 52 51 51 51 51 52 51 50 51 50 50 49 48 48 47 46 45 45 43 41 43 43 39 38 39 40 39 37 34 34 35 35 34 34 34 34 34 34 35 35 34 34 34 33 32 32 32 32 31 29 28 27 25 23 23 22 19 19 19 16 13 11 10 10 9 9 11 11 9 7 3 3 8 10 9 9 11 12 13 13
57 57 57 56 55 55 54 54 54 53 52 52 53 53 52 52 52 52 51 50 50 49 48 48 46 46 44 43 44 43 40 40 41 41 39 38 38 38 37 36 36 36 37 37 37 37 37 38 37 36 36 36 36 36 35 35 34 31 30 29 28 25 25 23 19 19 19 17 15 12 11 11 9 7 10 11 8 5 3 2 7 9 11 11 11 12 13 14
60 59 59 59 58 57 56 56 56 56 54 54 55 55 54 54 54 54 53 53 52 52 50 49 48 48 46 44 45 44 42 42 42 42 40 40 41 40 39 37 38 39 39 39 39 38 38 39 39 38 37 38 39 39 39 40 37 33 31 32 31 28 27 25 22 20 19 18 16 13 12 12 10 7 8 10 9 4 2 3 6 9 11 11 11 12 13 13
63 63 63 62 62 60 60 60 60 59 58 57 57 57 56 56 56 55 56 55 54 53 52 52 51 50 49 46 46 46 44 43 44 43 42 42 43 42 41 40 40 41 41 40 39 39 39 40 40 39 39 40 42 43 44 42 37 35 35 33 33 31 30 28 25 21 19 19 17 15 13 12 11 8 7 9 10 6 1 3 6 9 11 11 10 11 12 13
65 65 65 64 64 63 62 62 62 62 61 59 59 59 58 57 57 56 57 57 56 55 53 54 53 52 50 48 48 47 45 45 45 44 44 44 44 42 42 42 42 42 41 40 39 39 40 41 41 41 41 42 43 45 45 41 37 38 37 35 36 34 32 32 29 25 22 20 18 16 15 13 11 8 8 9 9 7 3 2 5 8 11 12 10 10 10 11
66 66 66 66 65 64 63 63 63 63 63 61 60 60 60 58 58 58 59 59 58 57 55 55 55 54 52 50 49 48 47 46 46 46 45 45 45 43 43 44 43 43 41 40 39 40 42 42 41 40 39 40 41 44 45 41 39 40 39 38 39 37 35 34 32 29 26 22 19 18 17 15 12 9 8 10 9 8 5 2 4 7 10 12 11 10 10 10
68 68 68 68 68 67 65 65 65 65 65 64 62 62 62 61 60 59 60 60 60 59 58 57 57 57 55 51 49 49 48 47 48 48 46 46 46 45 44 44 43 42 41 40 40 42 42 40 39 38 37 38 41 43 45 43 41 42 42 41 41 41 39 36 35 34 30 25 20 18 19 17 14 11 10 11 10 7 6 4 5 7 9 11 12 11 11 11
71 71 71 71 71 70 68 67 67 67 67 67 65 64 63 63 62 61 61 61 62 60 59 60 58 59 58 52 50 49 48 49 50 48 47 45 45 45 44 43 43 41 40 41 42 42 40 37 37 37 37 38 40 43 44 44 42 43 46 45 45 46 42 38 38 36 33 28 22 19 20 19 17 13 12 12 11 8 6 5 5 6 8 11 12 12 12 12
74 74 74 74 74 74 72 71 70 69 69 69 68 67 65 65 64 63 62 63 64 61 61 62 59 61 60 54 51 49 48 51 51 48 47 45 44 45 44 43 42 39 40 43 42 41 38 37 38 38 37 38 39 41 43 42 41 43 47 48 49 47 42 41 40 37 35 32 26 22 21 21 19 15 14 14 11 9 6 6 5 6 7 10 12 13 13 13
75 75 75 75 76 76 75 74 72 71 71 70 70 69 67 67 66 65 63 62 65 64 62 62 61 62 62 56 51 48 50 52 51 49 48 45 44 44 44 43 41 38 41 43 41 40 38 37 38 37 36 37 37 39 40 40 40 42 46 50 50 46 42 42 39 37 38 35 30 25 22 23 21 18 17 15 13 11 7 6 6 7 9 10 12 14 14 14
75 76 75 75 75 77 76 75 73 72 72 71 70 69 68 68 66 65 64 62 64 67 64 61 61 62 61 57 52 50 51 52 53 51 48 46 45 44 44 42 38 38 42 41 39 40 38 36 37 37 36 36 36 37 38 38 38 40 45 50 48 43 42 41 39 39 39 38 34 28 25 25 23 20 19 17 15 13 8 6 7 8 11 13 13 14 15 15
77 77 77 76 77 78 79 77 75 74 73 72 71 71 69 69 68 66 65 63 63 68 67 62 61 62 61 57 54 52 50 51 55 52 46 47 46 44 42 40 39 40 41 39 38 38 37 35 36 35 34 34 35 36 35 35 35 37 41 44 41 39 41 42 40 39 40 40 36 31 29 28 26 23 20 19 18 15 10 7 7 8 12 15 15 15 15 15
81 80 80 80 79 80 81 81 79 77 75 74 73 73 72 71 70 68 67 65 64 67 69 65 62 61 61 59 57 55 51 52 56 51 46 49 48 44 42 41 41 42 42 38 37 39 37 33 33 33 31 32 33 33 31 31 33 35 36 37 38 38 40 42 41 39 41 41 37 34 34 32 30 26 21 20 20 16 12 9 8 8 11 14 15 15 15 14
84 83 82 83 82 82 83 84 84 82 79 77 76 75 75 74 72 71 70 68 66 66 68 68 65 62 61 61 60 58 54 53 55 53 51 52 49 45 43 43 44 45 43 38 38 41 35 29 31 31 30 31 31 29 28 30 32 32 32 35 37 36 37 40 41 41 43 42 38 38 37 35 34 28 23 23 22 18 14 11 9 9 10 12 14 14 14 14
86 85 84 84 84 84 84 85 85 85 84 82 80 78 77 76 75 74 73 71 68 67 67 68 68 65 63 62 61 60 58 55 55 54 54 53 51 47 46 47 48 48 44 39 40 41 33 31 32 31 32 33 29 27 28 30 29 28 30 33 33 32 34 37 39 42 44 42 42 43 41 39 36 30 26 27 24 19 17 14 12 11 11 12 13 15 15 16
87 87 85 85 85 86 87 86 86 87 87 85 83 81 80 79 78 77 75 72 69 68 67 68 69 68 66 65 63 62 60 59 57 56 56 56 54 51 49 50 50 49 46 42 42 42 37 36 34 34 37 34 29 28 29 29 27 26 28 29 29 29 31 34 37 41 44 45 48 47 44 41 37 33 32 31 25 19 19 18 14 12 12 12 14 15 16 18
87 86 86 85 85 86 88 88 87 88 89 88 86 85 84 82 81 80 76 73 72 70 69 69 69 69 69 68 66 64 62 62 60 59 58 58 57 54 52 52 50 50 48 44 44 45 43 39 37 40 42 36 33 32 31 29 26 25 26 26 26 27 28 31 35 39 44 48 49 47 45 43 39 36 35 32 25 21 22 20 16 14 14 13 14 16 17 19
87 86 85 85 85 85 87 88 88 88 88 88 88 87 87 85 84 80 76 75 76 74 72 71 70 70 70 70 69 67 65 64 63 61 60 60 59 57 55 55 54 53 51 48 49 50 48 44 43 46 44 40 37 35 32 30 28 26 26 25 24 24 25 28 32 36 42 46 47 46 45 45 42 38 36 33 27 24 24 22 19 18 16 15 16 17 18 20
89 88 87 87 86 86 87 87 88 88 87 87 87 87 87 87 84 80 78 78 79 77 75 72 71 72 72 72 71 70 68 66 65 64 62 61 60 59 59 58 57 55 54 54 56 55 52 49 46 45 44 42 40 37 35 33 31 29 26 24 22 20 23 26 29 32 37 41 43 44 46 48 45 40 38 36 32 28 26 25 23 21 19 18 17 17 18 21
92 91 89 89 89 89 89 89 89 89 89 88 87 87 87 85 82 80 80 81 80 79 77 75 74 74 73 74 73 73 72 69 68 67 65 64 62 61 62 61 58 56 56 57 57 55 53 49 45 44 46 46 43 40 37 34 32 29 26 23 20 20 25 27 25 26 30 34 39 43 47 50 48 44 41 38 36 32 29 27 26 24 22 21 19 19 19 21
95 94 92 91 92 92 91 91 91 91 91 91 90 89 87 84 82 82 81 81 81 80 79 78 77 76 75 76 75 75 74 72 71 69 68 66 64 64 64 64 62 59 58 58 57 55 53 49 48 48 48 46 44 41 37 34 33 30 25 22 22 25 26 24 21 22 25 29 35 40 46 50 49 46 43 41 39 36 32 30 28 27 26 24 23 22 21 22
97 97 96 94 94 94 94 93 93 93 93 93 93 91 88 87 86 85 83 81 81 81 81 80 79 78 77 77 77 78 77 75 73 72 71 69 67 67 67 66 64 61 59 58 57 56 53 51 52 52 49 46 46 44 39 35 34 29 24 24 27 26 21 19 21 22 24 28 33 38 43 48 50 47 46 44 42 39 37 34 32 30 28 27 26 25 23 23
99 99 99 97 97 96 96 95 95 94 94 94 94 93 91 91 89 87 85 83 82 82 82 82 82 80 79 78 79 79 79 78 77 75 73 72 70 69 67 67 65 62 60 58 57 56 53 53 54 53 51 50 49 45 39 34 31 26 24 27 27 21 16 19 22 22 24 29 31 34 38 43 49 49 47 47 45 43 41 39 36 33 30 29 29 29 27 25
101 101 100 100 100 99 98 97 97 96 95 95 95 94 94 92 91 89 87 85 84 84 84 85 84 83 81 79 80 81 82 81 80 79 76 74 72 70 69 67 66 63 61 59 58 57 55 54 55 54 53 52 49 45 39 32 29 28 28 26 24 19 17 20 22 23 26 28 28 29 31 37 44 47 46 47 47 46 44 42 39 35 33 32 32 31 30 28
102 102 101 101 102 101 99 98 98 98 97 96 95 95 95 93 92 91 90 88 86 86 86 87 86 85 83 82 81 83 84 84 83 82 79 76 73 71 70 69 67 65 63 61 60 58 57 57 56 56 55 53 49 44 38 34 32 32 31 27 25 24 22 22 24 24 25 26 25 27 28 31 37 41 42 45 47 47 45 43 40 38 36 34 33 32 31 30
104 103 103 103 104 103 101 99 99 99 99 98 96 94 94 94 94 93 92 90 88 87 87 88 88 87 86 84 83 84 86 87 86 84 82 78 75 73 73 71 69 67 66 64 63 60 59 59 58 58 58 54 49 45 41 39 38 36 34 32 31 30 28 27 26 25 25 27 27 28 28 28 31 35 38 42 45 47 46 44 42 40 38 36 35 34 33 32
105 105 104 105 106 106 103 101 101 100 99 99 98 95 93 93 94 94 93 91 89 88 88 88 89 89 89 87 86 86 87 88 89 87 84 81 78 76 74 73 72 70 69 68 66 63 61 60 59 60 59 54 50 48 47 46 43 40 37 36 35 33 30 28 27 27 27 27 27 27 26 25 26 29 32 36 42 47 48 47 45 43 41 40 38 37 35 34
102 102 102 104 105 106 105 104 103 102 101 101 100 98 95 92 92 93 92 91 90 89 89 89 90 90 90 90 89 89 89 89 90 90 87 84 81 78 77 75 74 73 71 70 69 66 64 61 61 61 60 56 53 52 52 48 46 43 39 37 36 33 29 27 26 27 27 25 25 23 21 20 21 23 25 27 33 41 46 49 48 47 45 44 43 41 40 38
93 93 94 97 100 101 102 103 103 104 104 103 101 101 99 95 92 92 93 91 90 90 89 89 89 90 91 92 92 92 91 91 91 91 90 88 85 82 80 78 77 76 74 73 72 69 67 65 63 62 62 60 57 55 54 51 48 45 41 39 36 34 32 30 30 30 26 22 21 20 19 19 19 20 21 21 25 31 40 46 49 49 48 47 46 45 44 43
82 82 82 85 89 92 95 97 99 102 104 104 103 103 102 99 95 93 93 91 90 90 89 88 89 90 92 93 94 94 94 93 92 92 92 91 88 85 83 81 80 79 77 76 74 72 70 68 65 65 65 63 60 57 55 52 49 45 43 41 38 37 37 35 33 30 25 22 22 19 21 23 22 20 20 20 22 26 33 41 47 50 51 50 49 48 46 45
73 72 72 73 76 80 84 88 91 95 98 101 103 103 104 103 100 96 94 93 91 90 89 88 88 90 92 93 95 96 97 96 95 93 93 93 91 89 87 85 83 82 80 79 76 75 73 71 68 67 66 64 61 57 55 53 51 47 45 43 40 40 39 36 33 30 27 26 24 19 23 29 26 23 22 21 22 24 27 33 41 47 50 51 50 49 48 46
64 64 64 64 65 69 73 76 81 86 90 95 98 101 103 105 104 101 97 95 93 91 90 89 89 90 92 93 95 97 98 99 97 95 94 94 94 92 90 88 86 85 83 81 79 78 76 73 71 69 67 65 63 61 60 58 55 52 50 47 45 44 41 38 35 31 29 29 26 24 28 33 29 25 24 23 23 23 25 28 33 39 45 49 50 50 49 48
56 57 58 57 58 60 63 66 70 76 82 87 91 95 100 103 105 104 101 98 96 94 92 90 90 90 91 93 95 97 99 100 99 97 95 95 96 95 94 92 90 88 86 84 83 81 79 76 74 71 69 68 66 65 64 62 59 56 54 52 49 47 45 41 36 33 33 31 28 30 33 34 31 28 26 25 25 25 25 26 27 31 36 42 47 49 50 50
51 51 51 52 52 54 56 58 62 66 72 79 84 89 94 99 103 104 103 101 99 97 95 92 91 91 92 93 95 97 99 100 100 99 97 97 97 97 96 95 93 91 89 88 86 84 83 80 77 74 72 70 69 68 66 65 62 60 57 55 52 50 48 44 40 38 37 34 33 36 37 35 33 31 28 28 28 26 25 25 25 27 29 33 38 42 46 50
47 46 45 46 47 49 50 52 55 59 64 70 76 81 87 93 99 102 103 103 102 100 98 95 93 92 93 94 95 97 98 100 101 100 99 98 98 98 98 97 96 93 92 91 89 88 86 83 80 78 75 73 71 70 68 67 65 63 60 57 55 53 51 48 45 42 41 38 37 39 38 35 35 35 32 31 30 28 27 26 27 27 26 27 29 33 38 43
44 43 41 40 42 45 47 48 50 54 59 63 68 73 79 86 93 98 101 102 102 102 101 99 96 94 94 94 94 96 97 99 100 100 100 99 99 99 99 99 98 96 94 93 92 91 89 87 84 81 79 76 75 73 71 69 68 66 63 60 58 56 53 52 49 47 45 43 41 41 39 37 38 40 39 36 32 31 30 29 28 26 25 25 27 29 32 36
40 39 38 37 38 41 44 45 46 48 53 58 62 66 72 79 86 92 97 100 101 102 102 102 100 98 95 94 93 94 96 98 99 100 100 100 100 100 100 100 100 99 97 95 94 93 92 90 87 85 83 80 78 76 74 72 70 68 66 63 60 58 56 55 53 51 49 48 45 44 41 39 42 45 44 41 35 32 32 32 29 26 25 25 26 27 29 31
37 36 35 34 35 37 39 42 43 44 47 52 56 59 65 72 79 86 92 96 99 101 102 103 104 101 98 95 94 95 96 97 98 99 100 100 100 100 101 101 101 100 99 97 95 94 94 92 90 89 86 84 82 80 77 75 73 71 68 66 63 61 59 58 56 54 53 51 49 47 44 43 47 47 44 42 39 35 34 33 31 27 25 25 26 26 27 28
Wind_Direction
272 273 273 274 274 274 274 274 274 274 274 275 274 273 271 268 266 267 269 273 277 281 284 288 294 298 301 302 300 297 298 305 312 317 318 324 335 339 338 339 337 337 340 342 344 349 356 1 357 345 312 272 255 247 242 241 241 244 248 249 250 249 250 252 254 256 259 263 265 267 269 270 272 273 273 275 277 278 280 281 281 281 282 283 285 288 290 292
272 272 273 274 274 274 274 273 273 273 272 272 272 270 269 267 265 264 267 271 275 278 281 283 287 290 293 294 293 292 291 293 297 298 299 303 310 314 310 312 315 320 325 327 327 327 327 329 333 336 331 305 275 258 248 244 241 241 245 249 250 249 250 253 255 258 260 263 265 266 268 270 272 273 274 276 276 276 276 277 277 278 280 282 284 285 286 286
272 272 273 273 273 273 273 273 273 272 271 270 270 268 266 264 263 263 264 268 272 275 278 281 283 285 287 288 287 288 287 288 289 289 292 294 297 300 294 292 294 297 305 311 313 313 310 305 303 304 306 299 288 275 261 251 243 239 240 244 247 248 249 252 255 257 259 262 264 266 268 271 273 275 277 276 276 275 274 274 275 278 280 281 281 280 279 279
271 272 272 272 272 272 272 272 271 271 270 269 268 267 264 262 261 261 262 264 269 271 274 277 280 282 282 283 282 283 283 283 284 285 288 289 290 290 285 283 286 287 287 292 296 300 301 297 293 289 285 283 283 281 275 264 250 242 240 242 245 246 248 252 255 258 261 263 265 267 269 272 275 278 279 278 277 275 273 274 276 279 281 280 279 276 275 275
271 271 270 270 270 270 270 270 270 270 269 269 267 266 264 262 261 260 260 262 266 269 271 273 276 279 279 279 277 277 277 278 280 281 284 286 285 283 279 279 284 285 282 279 280 285 289 291 289 286 281 279 280 279 278 275 267 258 251 247 247 245 246 250 252 258 264 269 270 271 273 278 282 285 286 284 281 277 275 274 275 276 277 277 276 273 271 271
269 269 269 269 269 269 269 269 269 269 269 269 268 266 264 263 262 261 260 261 263 266 269 269 272 274 276 276 274 272 272 274 276 277 279 281 281 280 278 278 280 280 279 277 274 273 275 280 285 284 280 277 278 278 278 277 275 271 267 263 260 253 250 252 252 255 266 276 279 280 284 288 291 293 292 289 285 279 274 269 267 267 268 270 271 271 269 268
268 268 269 269 269 269 269 269 269 269 269 269 268 268 266 265 264 263 263 263 262 264 266 268 268 270 271 272 271 270 269 270 271 273 276 278 278 278 277 276 275 276 277 276 271 268 267 270 276 279 280 277 274 275 275 275 275 275 274 273 272 269 266 266 265 266 271 281 285 287 290 294 298 301 300 296 290 282 274 266 261 261 263 264 265 268 269 265
268 268 268 268 269 269 269 269 268 268 268 269 269 268 268 267 266 265 266 265 264 264 265 266 267 267 268 269 269 268 268 269 270 272 273 275 276 275 274 273 272 272 273 274 271 269 266 265 267 272 274 274 271 270 271 272 272 273 274 275 276 276 275 275 275 276 279 284 287 291 295 299 302 305 305 301 293 283 273 265 258 256 257 259 262 264 263 257
267 268 268 268 268 268 269 269 269 269 269 269 269 269 268 268 267 267 267 267 266 265 265 265 266 266 266 267 267 266 266 268 270 271 272 273 274 273 273 272 270 270 270 271 272 270 268 264 263 264 265 267 269 268 268 268 269 270 271 273 276 277 277 277 278 278 281 287 292 295 301 305 307 309 310 304 295 282 269 258 247 245 246 254 259 258 256 247
267 268 268 268 268 268 268 268 268 268 269 269 269 269 269 269 269 268 267 267 267 266 266 266 266 266 266 266 266 266 266 269 270 270 271 271 271 272 272 271 270 269 268 268 270 272 271 263 260 260 258 260 265 267 267 267 266 267 268 269 271 274 275 275 276 277 278 284 293 299 306 311 312 316 317 311 299 283 267 250 239 234 236 246 250 249 251 234
268 268 268 268 268 268 268 268 268 268 268 269 269 269 269 269 269 269 268 268 268 267 267 266 266 266 266 266 266 266 267 269 269 269 268 268 269 270 270 270 269 268 267 267 268 272 271 262 257 259 259 258 260 262 264 265 265 265 265 266 267 269 271 272 274 275 275 280 291 302 308 313 315 321 325 319 307 292 270 247 233 225 223 235 241 243 241 210
267 267 267 267 267 268 268 268 268 268 268 268 269 269 269 270 269 269 269 268 268 268 267 267 266 266 266 266 267 266 267 268 268 268 266 265 265 267 268 269 269 269 268 268 269 270 268 261 256 259 261 259 257 257 259 260 262 264 264 265 265 266 268 270 272 275 276 278 286 298 304 310 315 324 331 327 317 303 279 244 220 205 198 220 234 231 218 190
267 266 266 267 267 267 267 267 267 267 267 268 268 268 269 269 269 269 269 269 269 268 268 267 267 266 266 266 267 266 266 266 267 267 265 263 263 265 267 268 269 269 268 268 268 267 266 261 258 260 262 259 257 256 255 257 258 260 262 264 264 264 266 268 271 273 275 276 276 283 294 305 315 328 336 333 325 312 290 217 185 179 178 212 219 206 194 180
267 267 267 267 267 267 267 267 267 267 267 268 268 269 269 269 270 269 269 269 269 269 269 268 268 267 266 267 267 267 266 267 266 265 264 265 265 265 265 266 266 266 267 267 267 267 266 263 261 261 260 258 258 257 255 255 255 256 259 261 261 261 264 266 268 270 272 273 272 276 286 297 313 331 337 335 332 324 303 168 156 160 171 198 201 192 185 180
267 267 267 267 267 268 268 268 268 268 268 268 268 269 269 269 269 269 269 269 269 269 269 269 268 268 267 267 267 267 266 266 265 265 266 268 266 263 262 263 264 265 266 267 266 265 265 264 263 261 260 261 260 257 255 254 253 252 254 256 258 259 261 263 264 266 269 271 273 278 284 291 307 329 335 333 337 342 333 155 148 154 172 190 195 193 189 185
268 268 268 267 267 267 267 268 268 267 267 268 268 268 269 269 269 269 269 269 269 268 268 268 268 268 267 266 267 267 266 265 265 266 267 267 265 263 262 263 265 265 264 265 264 264 264 264 263 261 261 261 258 256 254 252 251 251 251 253 256 256 258 260 260 261 265 270 272 276 280 287 298 320 333 331 336 356 15 144 152 156 172 188 196 199 198 193
269 269 269 268 268 268 268 268 268 268 267 268 268 269 269 269 269 270 269 269 269 268 268 268 268 267 267 266 267 267 266 265 265 266 266 266 265 265 266 265 264 264 264 264 264 265 265 264 264 262 261 260 257 255 252 250 250 252 250 251 253 255 256 257 256 257 261 265 268 269 273 282 290 306 326 327 330 345 52 133 162 163 169 183 197 204 207 206
270 270 269 269 269 268 268 268 268 268 268 268 268 268 268 269 269 269 270 269 269 268 268 268 268 267 266 266 266 266 266 266 266 266 266 266 266 266 267 266 264 264 264 265 265 265 264 263 262 261 258 256 253 250 249 249 251 251 249 249 251 253 255 255 254 255 256 259 261 262 266 274 282 292 310 317 323 325 4 134 163 172 170 174 191 203 209 214
269 269 269 268 268 268 267 268 268 268 267 266 267 267 267 267 267 268 268 268 268 268 268 268 267 266 266 266 266 266 266 266 266 266 266 267 266 266 266 266 266 265 265 265 265 265 263 261 259 257 255 254 253 252 252 254 253 252 250 248 248 249 252 252 252 252 252 253 256 257 259 264 272 282 293 300 314 323 304 162 159 175 177 174 183 198 205 213
269 269 268 268 267 267 266 266 266 266 266 265 265 265 265 265 265 265 266 266 267 267 266 266 266 266 265 264 264 266 266 266 267 266 265 265 265 265 266 266 266 267 267 266 265 262 260 259 258 257 257 256 256 255 255 254 252 251 249 245 244 245 247 249 250 250 250 248 250 254 255 257 261 265 275 283 297 316 313 243 175 172 182 180 184 195 206 213
269 269 268 268 267 266 265 265 265 265 265 265 263 263 264 263 263 263 264 265 265 265 265 264 265 264 263 263 264 265 266 266 264 264 263 264 266 266 266 266 266 266 267 266 263 260 259 259 260 259 258 256 255 253 252 249 246 245 244 242 241 242 242 244 247 248 248 246 245 250 253 252 252 251 258 269 280 299 317 285 214 183 182 183 185 193 205 213
269 269 269 268 268 267 266 265 265 264 264 264 263 262 262 262 262 262 262 263 263 263 264 263 263 263 262 262 262 263 264 263 262 263 264 265 266 265 264 264 264 266 266 263 261 260 261 262 261 258 256 254 252 251 250 248 245 243 242 240 238 238 238 239 243 246 248 247 242 244 250 252 249 245 248 258 269 282 307 300 247 204 189 180 181 189 200 205
269 269 269 268 268 267 266 265 264 264 264 264 264 262 261 261 261 261 261 262 263 262 262 262 262 262 262 260 260 262 263 262 262 262 262 261 261 262 262 261 263 265 263 260 261 262 262 260 258 256 254 252 251 250 249 248 245 242 241 240 238 238 237 238 240 244 247 248 243 239 244 250 248 241 245 251 260 270 289 299 263 220 202 185 180 185 189 193
269 268 268 268 268 267 266 265 264 264 264 263 263 263 262 261 261 260 260 261 262 261 260 261 261 261 261 260 260 259 258 260 260 259 258 257 257 258 259 260 263 261 256 258 260 260 259 258 257 256 254 252 251 250 249 248 245 242 241 241 239 239 238 238 239 242 245 247 245 239 239 247 248 242 244 247 252 258 268 286 265 224 210 199 187 183 181 188
268 268 267 267 267 267 266 265 264 263 263 262 262 262 261 261 260 259 259 259 261 261 259 258 260 260 260 260 258 255 256 258 257 255 256 256 255 255 256 259 260 254 252 256 258 257 257 256 255 255 254 253 251 249 248 247 245 243 241 242 242 240 239 238 237 239 243 245 245 241 238 242 245 242 243 245 248 251 251 266 262 229 215 209 199 190 185 193
267 267 267 266 266 266 266 265 263 262 261 261 261 261 260 260 259 259 258 257 258 260 259 257 257 259 260 259 257 254 253 253 253 254 255 254 252 250 251 252 250 248 249 251 252 252 252 251 253 255 253 252 250 249 248 248 247 244 244 245 246 242 239 237 235 235 240 243 243 243 239 238 240 240 240 243 245 245 244 251 255 235 220 214 208 200 195 200
267 266 266 266 265 265 265 265 263 262 260 260 260 260 260 259 259 258 257 256 255 258 259 258 255 256 258 257 255 253 250 248 251 253 250 249 248 245 244 243 243 243 244 245 245 246 249 251 252 252 250 248 247 248 250 249 247 246 246 247 245 241 237 235 233 232 236 239 239 241 240 236 235 235 236 239 242 241 239 244 249 239 227 219 210 202 197 196
267 266 265 265 264 264 264 264 264 262 260 259 258 258 259 258 258 257 256 256 255 255 257 258 256 254 254 254 253 252 248 245 248 249 246 246 247 244 239 236 236 238 240 241 240 244 248 246 243 245 244 243 244 248 248 245 245 245 246 245 243 241 237 234 231 229 232 234 234 236 237 235 232 230 231 235 236 235 235 237 237 231 228 222 208 196 189 186
268 267 265 264 264 263 262 262 263 262 260 259 258 257 257 257 257 256 255 255 255 254 254 255 256 254 251 251 250 250 248 243 243 245 244 245 244 240 235 232 233 236 238 236 237 242 242 236 237 240 239 239 242 245 243 243 244 244 244 243 243 241 238 235 231 228 229 230 231 232 233 234 230 225 229 232 229 229 232 231 228 220 218 218 207 193 183 180
268 267 266 264 264 263 262 261 261 261 261 259 257 256 255 255 255 255 255 255 254 252 252 252 253 253 251 249 247 246 245 243 240 240 241 241 241 239 235 234 233 235 235 232 234 239 236 233 236 238 238 240 241 240 239 241 242 240 242 243 243 241 238 236 232 229 228 227 229 230 231 234 230 225 227 229 225 223 227 227 222 216 213 213 208 196 184 178
268 267 266 264 263 263 262 261 260 259 260 259 257 256 254 254 253 253 254 254 253 251 251 251 251 251 250 248 245 243 242 241 239 238 237 238 240 239 236 235 234 233 233 231 233 236 234 232 233 236 239 240 238 237 237 240 241 239 243 244 242 240 237 235 232 229 228 228 228 229 231 235 232 227 228 228 223 221 224 224 219 212 209 207 205 198 188 180
267 265 265 263 262 262 261 261 260 258 258 258 257 256 254 253 252 252 252 252 251 250 249 249 248 247 247 247 245 242 239 238 238 237 235 234 237 238 236 234 232 230 229 227 228 232 231 229 230 234 239 240 239 237 237 240 240 238 241 243 241 239 236 234 231 229 228 229 229 228 232 235 233 230 230 228 225 222 222 223 219 211 205 202 200 196 191 185
266 264 263 262 261 260 260 259 259 259 258 257 256 255 254 253 251 250 249 249 249 249 248 246 245 244 243 244 244 242 239 236 235 235 234 233 233 235 236 234 232 230 228 227 228 229 229 229 230 234 240 241 240 238 236 238 239 238 238 242 241 238 236 234 230 229 230 231 230 228 230 234 233 230 229 228 226 223 222 223 222 215 207 202 198 196 195 191
265 264 262 261 260 259 258 258 258 258 257 256 255 254 254 253 252 249 247 246 247 247 246 244 243 242 241 241 241 241 239 236 234 233 233 232 231 231 234 235 233 230 228 228 230 231 231 231 231 232 237 239 238 238 237 238 241 240 236 237 236 231 233 234 232 231 232 232 231 228 229 233 233 229 227 228 227 224 222 223 223 220 213 205 200 198 198 196
265 264 263 261 260 259 257 257 256 256 256 256 255 254 254 253 251 248 246 245 244 244 244 243 241 239 239 238 238 239 239 237 234 232 231 231 229 228 230 233 232 229 227 228 229 230 230 230 229 230 233 237 239 238 237 236 238 236 232 226 223 226 232 234 231 229 229 231 230 228 228 230 231 229 226 227 228 225 222 222 223 221 218 210 204 200 199 201
266 265 264 262 261 260 259 257 256 255 255 255 255 254 253 252 250 249 247 245 243 242 242 241 240 238 237 237 237 237 237 237 235 233 230 229 228 228 228 230 231 229 228 227 227 228 228 227 228 229 231 234 236 236 233 232 233 233 225 215 219 229 234 230 227 225 225 228 228 227 228 227 229 229 225 224 226 225 222 220 221 220 219 216 210 203 201 203
266 266 265 264 262 261 260 259 257 256 255 254 254 254 252 251 250 249 247 245 243 242 240 239 239 238 236 236 236 236 236 236 235 234 231 228 227 227 227 229 230 229 228 227 226 226 226 227 229 230 231 232 234 236 235 233 234 233 221 214 221 230 224 218 221 220 223 227 227 229 229 228 228 228 224 222 224 225 223 220 219 218 218 220 216 208 203 204
267 267 266 265 264 262 261 260 259 257 255 254 253 253 252 251 250 249 247 245 244 242 240 238 238 237 236 234 234 234 234 233 234 234 232 228 226 226 226 227 227 228 228 227 226 225 224 226 229 230 231 232 233 236 237 234 231 228 222 216 218 218 207 207 212 215 223 227 228 231 232 229 230 229 226 223 223 226 226 223 221 218 218 221 221 215 208 205
270 269 268 267 266 264 262 261 260 258 257 255 253 252 252 251 250 249 248 245 243 242 240 238 237 236 235 234 233 232 232 232 232 233 232 230 226 225 225 225 225 226 226 226 225 225 224 225 227 228 230 231 231 232 232 228 223 221 219 211 207 207 201 202 207 213 222 226 225 228 230 230 231 231 228 225 224 226 228 228 225 221 220 222 224 222 217 212
271 269 268 267 266 265 263 261 260 259 258 257 254 252 251 250 249 248 247 245 243 242 240 239 237 235 234 233 232 231 231 231 232 232 231 230 228 225 224 224 223 223 224 225 224 223 224 225 226 227 228 228 227 227 226 223 219 217 213 206 203 202 199 199 204 207 215 222 223 224 227 230 231 231 229 226 223 224 226 228 229 226 224 225 225 225 223 220
271 269 267 266 264 263 262 261 259 258 257 257 256 254 251 249 248 248 247 245 243 242 240 239 237 235 233 232 232 231 230 230 230 231 231 230 228 226 223 222 222 221 221 223 224 222 222 224 226 227 227 225 223 223 222 220 217 214 210 206 203 200 198 199 203 206 211 220 226 226 225 229 232 233 232 229 225 223 223 224 226 227 226 225 225 224 224 223
271 269 267 264 263 261 260 258 257 256 255 254 254 254 252 249 248 247 246 245 243 241 239 238 237 235 233 231 231 231 231 230 229 230 230 229 228 226 224 222 221 220 220 221 223 222 221 222 224 226 226 224 221 221 221 219 217 214 210 208 204 198 197 198 201 208 212 218 229 233 228 225 230 233 232 230 228 225 224 224 225 225 225 224 223 221 220 220
273 270 267 265 262 261 259 257 255 254 253 252 251 251 252 250 248 246 246 244 242 241 239 237 236 235 233 231 230 230 230 229 229 228 229 228 228 226 224 222 221 220 219 220 221 222 221 220 222 224 225 223 220 220 221 219 217 214 211 210 204 197 197 197 200 208 211 214 227 237 237 226 221 225 226 224 224 222 223 224 225 225 225 225 224 222 220 220
275 272 268 265 262 260 258 256 254 252 251 250 249 248 248 249 247 245 244 244 242 240 239 237 235 234 233 231 230 229 229 229 228 227 227 227 227 226 225 223 221 220 219 219 220 221 221 220 220 223 224 222 220 219 220 220 219 215 212 211 205 199 200 200 203 206 206 209 217 226 239 231 215 213 216 213 214 216 218 221 224 225 226 226 226 225 223 223
278 275 271 266 263 260 257 255 253 251 249 248 247 246 245 245 245 244 242 242 241 239 238 236 235 233 233 232 230 229 228 228 228 227 226 226 226 226 225 223 222 220 219 219 219 220 221 220 220 222 224 223 221 219 220 221 220 217 214 213 209 205 203 202 204 202 196 202 205 206 228 230 215 206 209 208 210 213 215 218 222 225 227 228 228 228 227 226
279 276 273 269 265 261 258 255 252 250 248 246 245 244 243 243 243 242 240 240 240 238 237 235 234 232 231 231 230 229 228 228 227 227 226 225 225 225 225 224 222 221 219 219 218 219 220 220 220 221 223 223 221 218 218 219 218 216 215 214 211 210 207 203 202 198 192 197 197 196 218 231 222 209 209 211 210 212 215 218 220 223 226 228 230 231 231 231
281 277 274 270 266 262 259 255 252 249 247 245 243 241 241 240 240 240 239 237 237 237 236 234 233 232 231 230 230 229 229 228 227 227 225 225 225 224 224 224 223 221 220 219 218 219 219 220 220 220 222 222 221 219 217 217 217 216 215 215 213 211 209 204 200 197 197 199 193 195 213 229 229 217 210 212 213 210 213 218 220 222 225 227 230 231 232 233
283 279 275 272 267 263 259 255 252 249 246 244 242 240 238 238 238 238 237 236 235 235 235 234 232 231 230 229 229 229 229 228 228 227 226 225 224 224 224 223 223 222 220 219 218 218 219 219 219 220 221 222 221 220 218 216 216 216 215 216 215 213 211 207 202 200 202 202 197 200 212 227 234 228 216 211 212 210 210 212 215 217 219 224 228 230 232 233
285 281 277 273 269 265 259 254 250 248 245 243 241 239 237 236 236 236 236 235 233 232 232 233 231 230 229 228 228 228 228 228 228 227 226 225 224 224 224 224 223 222 221 220 219 218 218 218 218 219 220 221 221 221 219 217 216 215 215 215 216 214 212 209 205 204 204 204 204 209 217 225 234 237 231 220 212 208 209 208 208 209 210 215 220 226 230 233
288 284 279 274 269 264 260 254 249 246 245 243 240 237 235 235 234 235 234 234 232 230 229 230 231 230 229 228 227 227 228 228 228 228 227 226 225 224 224 224 223 223 222 220 219 219 218 218 218 218 219 220 221 221 220 218 216 215 214 214 215 215 213 211 209 207 206 205 207 214 219 223 229 236 238 233 219 210 209 209 206 204 206 210 216 222 228 232
292 287 281 275 269 265 261 257 251 246 243 242 240 237 234 233 233 233 233 233 232 230 227 227 229 229 228 228 227 227 227 228 228 228 227 227 226 225 224 224 223 223 222 221 220 219 219 218 218 218 219 219 220 221 221 219 217 215 214 214 214 215 214 212 211 210 209 206 208 215 219 223 228 231 235 238 230 215 209 209 208 209 210 212 216 221 226 231
294 290 285 278 272 267 262 258 254 249 244 242 241 238 234 233 232 232 231 231 231 230 227 225 226 227 227 226 226 226 226 227 227 228 228 227 226 225 224 224 224 223 223 222 221 220 220 219 218 218 218 219 220 220 221 220 218 216 215 214 214 213 213 213 212 211 210 208 209 214 218 222 227 230 234 240 239 228 215 208 208 212 217 219 221 224 226 229